COSMOS 468

Satellite information

Favourite Embed

Satellite Type and Status

PAYLOADIN ORBIT

Key statistics

Satellite COSMOS 468 at a glance.

Uptime

19499

Days in orbit

Revolutions

≈ 14.4

Per day

Orbit

LEO

Low Earth Orbit

Inclination

74.0

Latest

Satellite identification and parameters

Extended collection of information and parameters for COSMOS 468.

Object identification

Identified? True

Debris? False

Object name: COSMOS 468

International designator: 1971-114A

Object number (NORAD): 5705

Object ID (CCSDS): 5705

Country: COMMONWEALTH OF INDEPENDENT STATES (CIS)

Current information (Y/N): Y

RCS size: LARGE

Orbital parameters

Period: 100.239 minutes

Inclination: 74.0172 deg

SMA: 7148.024 km

Apoapsis: 780.068 km

Periapsis: 759.71 km

RAAN: 271.1061 deg

Eccentricy: 0.001424

Argument of periapsis: 55.615 deg

Mean anomaly: 304.6348 deg

Mean motion: 14.36559915 rev/day

Mean motion (dot): 0.00000272 rev/day2

B* drag term: 0.00010135 1/REarth

Two-line elements (TLE)

Creation date: May 6, 2025, 3:54 a.m.

Reference frame: TEME

Reference center: EARTH

Epoch: May 5, 2025, 8:04 p.m. UTC

TLE line 0: 0 COSMOS 468

TLE line 1: 1 05705U 71114A 25125.83669329 .00000272 00000-0 10135-3 0 9996

TLE line 2: 2 05705 74.0172 271.1061 0014240 55.6150 304.6348 14.36559915792713

Live tracking on map

Real-time ground track for satellite COSMOS 468.

In-orbit conjunctions

A list of the most updated potential collisions computed for object COSMOS 468.

Target Orbit TCA Probability of collision Miss distance Type
SL-16 DEB LEO 2025-04-14 16:28:31 0.0002966218 944.0 (m) DEBRIS
CZ-6A DEB SSO 2025-04-09 01:40:05 0.0007417947 348.0 (m) DEBRIS
NOAA 16 DEB SSO 2025-03-05 17:37:26 0.0001945337 294.0 (m) DEBRIS
NOAA 16 DEB SSO 2024-12-26 13:10:31 0.0002768331 789.0 (m) DEBRIS
FENGYUN 1C DEB SSO 2024-12-03 11:06:33 0.0003441278 637.0 (m) DEBRIS

Associated space launch

The DS-P1-Yu series of satellites was used to calibrate space surveillance and early warning radars.

COSMOS 468 was lifted into orbit during the mission ‘Kosmos 11K63 | DS-P1-Yu 49’, on board a Kosmos 11K63 space rocket.

The launch took place on Dec. 17, 1971, 10:39 a.m. from 133/3 (133L).

For more information about the launch, click the button.

Launch to space Kosmos 11K63 | DS-P1-Yu 49
Kosmos 11K63 | DS-P1-Yu 49

Agency: N/A

Status: Launch Successful

Launch date: Dec. 17, 1971, 10:39 a.m. UTC

Rocket: Kosmos 11K63

Launch pad: 133/3 (133L)

Location: Plesetsk Cosmodrome, Russian Federation

...

Latest news about this satellite

There are no fresh news available about this satellite. Check back as we update our databases every day.


Newsletter sign-up

Weekly statistics, charts and insights to help you stay on top of the space industry.